Content
SEND FEEDBACK

Daily
Averages
Monthly
Summary
United States of America

JACKSONVILLE, VERMONT


Home > North America > United States > Vermont
Elevation: 800 feet     Latitude: 42 44N     Longitude: 072 44W

WEATHER
 
SELECT A DAY
Number of Records: 199,139;   Date Range: 10/28/95 - 9/29/14
 
SHARE

PRINT THIS DATA

[ ← Previous Day ]
WEATHER ALMANAC - AUGUST 7, 2014
[ Next Day → ]
[ °C ]   °F
Weather ElementAverageHighLow
Temperature59.4 °F72 °F (2:52 pm)52 °F (5:52 am)
Dewpoint53.7 °F57 °F (9:52 am)51.1 °F (5:52 am)
Humidity83.9 %100 % (2:47 am)53 % (3:52 pm)
Barometer29.95 in30.02 in (9:52 pm)29.91 in (2:52 pm)
Wind Speed2.4 mph11.5 mph (3:52 pm)
Weather ElementAverage
Visibility7.2 mi
Wind DirectionENE (56.3 °)

Weather ElementTotal
Precipitation---
Heating Degree Days3 (Base 65)
Growing Degree Days12 (Base 50)
Averaged from 40 records on August 7, 2014
WEATHER CONDITIONS BREAKOUT
WIND DIRECTION BREAKOUT
WEATHER BY HOUR - AUGUST 7, 2014
[ °C ]   °F
Local TimeTemperatureDewpointHumidityBarometerVisibilityWind DirectionWind SpeedGust SpeedPrecipitationEventsConditions
1:52 AM54.0 °F53.1 °F97 %29.93 in7.0 miCalmClear
2:07 AM54.0 °F53.1 °F97 %29.93 in7.0 miCalmPartly Cloudy
2:19 AM53.1 °F52.0 °F96 %29.93 in10.0 miCalmMostly Cloudy
2:45 AM54.0 °F53.1 °F97 %29.93 in2.5 miCalmMostly Cloudy
2:47 AM53.6 °F53.6 °F100 %29.93 in1.0 miCalmMostly Cloudy
2:52 AM54.0 °F54.0 °F100 %29.93 in0.2 miCalmFogFog
3:18 AM54.0 °F54.0 °F100 %29.93 in0.5 miCalmFogFog
3:25 AM54.0 °F54.0 °F100 %29.94 in0.2 miCalmFogFog
3:38 AM54.0 °F54.0 °F100 %29.94 in1.0 miCalmMist
3:43 AM54.0 °F54.0 °F100 %29.93 in2.0 miCalmOvercast
3:52 AM54.0 °F54.0 °F100 %29.94 in1.8 miCalmOvercast
4:06 AM54.0 °F54.0 °F100 %29.94 in0.8 miCalmMist
4:52 AM54.0 °F54.0 °F100 %29.94 in0.5 miCalmFogFog
5:05 AM54.0 °F53.1 °F97 %29.93 in1.5 miENE (70°)3.5 mphOvercast
5:09 AM53.1 °F53.1 °F100 %29.93 in3.0 miVariable3.5 mphOvercast
5:23 AM53.1 °F52.0 °F96 %29.93 in10.0 miESE (110°)3.5 mphOvercast
5:52 AM52.0 °F51.1 °F97 %29.94 in10.0 miCalmPartly Cloudy
6:52 AM53.1 °F52.0 °F96 %29.94 in10.0 miCalmMostly Cloudy
7:31 AM55.0 °F54.0 °F96 %29.95 in10.0 miNNW (330°)3.5 mphMostly Cloudy
7:38 AM55.0 °F53.1 °F93 %29.95 in10.0 miCalmMostly Cloudy
7:52 AM55.9 °F54.0 °F93 %29.95 in10.0 miCalmScattered Clouds
8:52 AM61.0 °F55.9 °F83 %29.95 in10.0 miCalmScattered Clouds
9:52 AM66.9 °F57.0 °F70 %29.95 in10.0 miNorth (350°)5.8 mphClear
10:52 AM69.1 °F55.0 °F61 %29.95 in10.0 miNorth (350°)8.1 mphMostly Cloudy
11:52 AM71.1 °F55.0 °F57 %29.94 in10.0 miVariable5.8 mphPartly Cloudy
12:52 PM69.1 °F54.0 °F58 %29.94 in10.0 miVariable3.5 mphClear
1:52 PM71.1 °F55.9 °F59 %29.92 in10.0 miSW (230°)10.4 mphPartly Cloudy
2:25 PM69.1 °F52.0 °F54 %29.93 in10.0 miVariable3.5 mphThunderstormPartly Cloudy
2:40 PM71.1 °F54.0 °F55 %29.92 in10.0 miVariable3.5 mphPartly Cloudy
2:52 PM72.0 °F57.0 °F59 %29.91 in10.0 miVariable5.8 mphThunderstormPartly Cloudy
3:07 PM71.1 °F55.0 °F57 %29.91 in10.0 miNorth (350°)4.6 mphScattered Clouds
3:52 PM71.1 °F53.1 °F53 %29.92 in10.0 miNorth (10°)11.5 mphPartly Cloudy
4:24 PM68.0 °F54.0 °F61 %29.94 in10.0 miVariable3.5 mphThunderstormScattered Clouds
4:52 PM66.0 °F52.0 °F60 %29.95 in10.0 miVariable3.5 mphMostly Cloudy
5:52 PM66.0 °F54.0 °F65 %29.97 in10.0 miCalmClear
6:52 PM64.0 °F55.0 °F73 %29.98 in10.0 miSW (230°)8.1 mphClear
8:52 PM57.0 °F55.0 °F93 %30.01 in10.0 miCalmClear
9:52 PM55.0 °F53.1 °F93 %30.02 in10.0 miCalmClear
10:52 PM54.0 °F52.0 °F93 %30.02 in10.0 miCalmClear
11:52 PM52.0 °F51.1 °F97 %30.02 in10.0 miSW (220°)3.5 mphClear
Hourly data recorded from KAQW, located miles away from Jacksonville, Vermont







STORIES FROM OUR PARTNERS